Location: Schommer Observatory
(40.5200°N, 74.4500°W)
Time: 06:14:19
(UTC-04:00)

Vanguard 2 Rocket - All Passes

Search period start: 26 May 2018 00:00
Search period end: 05 June 2018 00:00
Orbit: 553 x 3327 km, 32.9° (Epoch: 25 May)

Date Brightness Start Highest point End Pass type
(mag) Time Alt. Az. Time Alt. Az. Time Alt. Az.
26 May - 00:31:33 10° WSW 00:35:22 22° SSW 00:40:36 10° SSE night (unlit)
26 May - 19:08:29 10° SSW 19:11:31 17° SSE 19:14:12 10° ESE daylight
26 May - 21:20:17 10° WSW 21:23:44 29° S 21:27:31 10° ESE visible
26 May - 23:32:35 10° WSW 23:36:07 24° S 23:40:45 10° SE visible
27 May - 01:47:26 10° SW 01:49:13 11° SSW 01:51:13 10° S night (unlit)
27 May - 18:09:36 10° SSW 18:12:22 14° SSE 18:14:45 10° SE daylight
27 May - 20:21:13 10° SW 20:24:47 27° S 20:28:10 10° ESE daylight
27 May - 22:33:39 10° WSW 22:37:01 26° S 22:41:05 10° SE visible
28 May - 00:47:13 10° SW 00:49:44 13° SSW 00:52:46 10° S night (unlit)
28 May - 17:11:02 10° S 17:13:05 12° SSE 17:14:54 10° SE daylight
28 May - 19:21:53 10° SW 19:25:47 24° S 19:29:03 10° ESE daylight
28 May - 21:34:36 10° WSW 21:38:01 28° S 21:41:40 10° SE visible
28 May - 23:47:42 10° SW 23:50:27 16° SSW 23:53:44 10° SSE visible
29 May - 18:22:22 10° SW 18:26:41 22° SSE 18:30:03 10° ESE daylight
29 May - 20:35:21 10° WSW 20:39:03 29° S 20:42:32 10° ESE daylight
29 May - 22:48:25 10° WSW 22:51:18 19° SSW 22:54:38 10° SSE visible
30 May - 17:22:42 10° SSW 17:27:27 19° SSE 17:31:00 10° ESE daylight
30 May - 19:35:47 10° WSW 19:40:04 30° S 19:43:34 10° ESE daylight
30 May - 21:49:07 10° WSW 21:52:16 22° SSW 21:55:36 10° SE visible
31 May - 16:23:00 10° SSW 16:28:01 17° SSE 16:31:47 10° ESE daylight
31 May - 18:35:55 10° SW 18:41:00 29° S 18:44:45 10° ESE daylight
31 May - 20:49:40 10° WSW 20:53:19 27° S 20:56:41 10° SE visible
31 May - 23:04:03 10° SW 23:05:32 12° SSW 23:07:07 10° S visible
01 Jun - 15:23:34 10° S 15:28:22 15° SSE 15:32:09 10° SE daylight
01 Jun - 17:35:45 10° SW 17:41:48 28° S 17:45:57 10° ESE daylight
01 Jun - 19:49:55 10° WSW 19:54:21 31° S 19:57:54 10° ESE daylight
01 Jun - 22:04:00 10° WSW 22:06:28 16° SSW 22:09:01 10° SSE visible
02 Jun - 14:24:54 10° S 14:28:29 12° SSE 14:31:33 10° SE daylight
02 Jun - 16:35:25 10° SW 16:42:24 26° SSE 16:47:05 10° ESE daylight
02 Jun - 18:49:49 10° WSW 18:55:18 35° S 18:59:13 10° ESE daylight
02 Jun - 21:04:11 10° WSW 21:07:30 22° SSW 21:10:34 10° SE visible
03 Jun - 15:35:02 10° SSW 15:42:46 23° SSE 15:48:02 10° ESE daylight
03 Jun - 17:49:22 10° WSW 17:56:07 36° S 18:00:33 10° ESE daylight
03 Jun - 20:04:14 10° WSW 20:08:34 29° SSW 20:12:04 10° SE daylight
04 Jun - 14:34:48 10° SSW 14:42:53 20° SSE 14:48:37 10° ESE daylight
04 Jun - 16:48:37 10° SW 16:56:44 35° S 17:01:51 10° ESE daylight
04 Jun - 19:03:57 10° WSW 19:09:34 36° S 19:13:32 10° ESE daylight
04 Jun - 21:19:07 10° WSW 21:21:36 15° SSW 21:23:57 10° SSE visible
